Location: Dreilärchen
(47.9312°N, 8.6113°E)
Time: 20:28:23
(UTC+00:00)

USA 307 - Pass Details

Date: 26 May 2022
Orbit: 552 x 554 km, 54.0° (Epoch: 17 June)

Event Time Altitude Azimuth Distance (km) Brightness Sun altitude
Exits shadow 00:12:06 41° 135° (SE) 814 3.4 -20.1°
Drops below altitude 10° 00:15:56 10° 69° (ENE) 1,843 5.9 -19.9°
Sets 00:18:16 0° 63° (ENE) 2,742 7.0 -19.9°
